Wrangell, AK

11:22 PM AKDT on July 23, 2016 (GMT -0800)
Wrangell

Weather History for PAWG - January, 2013

Change the Weather History Date:

Tuesday, January 1, 2013

  Actual Average Record
Temperature  
Mean Temperature 42 °F -  
Max Temperature 46 °F 32 °F 51 °F (1962)
Min Temperature 37 °F 23 °F -1 °F (1950)
Degree Days  
Heating Degree Days 24    
Moisture  
Dew Point 30 °F    
Average Humidity 69    
Maximum Humidity 87    
Minimum Humidity 37    
Precipitation  
Precipitation 0.37 in - - ()
Sea Level Pressure  
Sea Level Pressure 30.14 in    
Wind  
Wind Speed 9 mph (ESE)    
Max Wind Speed 26 mph    
Max Gust Speed 45 mph    
Visibility 10 miles    
Events      
Averages and records for this station are not official NWS values.
T = Trace of Precipitation, MM = Missing Value Source: NWS Daily Summary

Daily Weather History Graph

Daily Weather History Graph

Search for Another Location

Airport or City:

Trip Planner

Search our weather history database for the weather conditions in past years. The results will help you decide how hot, cold, wet, or windy it might be!

Date:

Astronomy

Jan. 01, 2013 Rise Set
Actual Time 8:23 AM AKST 3:23 PM AKST
Civil Twilight 7:36 AM AKST 4:10 PM AKST
Nautical Twilight 6:46 AM AKST 5:00 PM AKST
Astronomical Twilight 6:00 AM AKST 5:46 PM AKST
Moon 9:01 PM AKST (1/1) 9:44 AM AKST (1/1)
Length of Visible Light 8h 34m
Length of Day
6h 59m
Waning Gibbous, 82% of the Moon is Illuminated
Jan 1
Waning Gibbous
Jan 4
Last Quarter
Jan 11
New
Jan 18
First Quarter
Jan 26
Full

Hourly Weather History & Observations

Time (AKST) Temp. Windchill Dew Point Humidity Pressure Visibility Wind Dir Wind Speed Gust Speed Precip Events Conditions
12:16 AM 37.4 °F 34.9 °F 32.0 °F 81% 30.36 in 10.0 mi ESE 3.5 mph - N/A   Overcast
12:36 AM 37.4 °F 32.8 °F 33.8 °F 87% 30.36 in 10.0 mi SE 5.8 mph - N/A   Overcast
12:56 AM 39.2 °F 35.0 °F 33.8 °F 81% 30.35 in 10.0 mi ESE 5.8 mph - N/A   Mostly Cloudy
1:16 AM 39.2 °F 33.0 °F 33.8 °F 81% 30.36 in 10.0 mi East 9.2 mph - N/A   Mostly Cloudy
1:36 AM 39.2 °F 34.2 °F 33.8 °F 81% 30.36 in 10.0 mi SSE 6.9 mph - N/A   Mostly Cloudy
1:56 AM 39.2 °F 35.0 °F 33.8 °F 81% 30.37 in 10.0 mi ESE 5.8 mph - N/A   Mostly Cloudy
2:16 AM 39.2 °F 33.0 °F 33.8 °F 81% 30.35 in 10.0 mi East 9.2 mph - N/A   Scattered Clouds
2:36 AM 39.2 °F 33.0 °F 33.8 °F 81% 30.35 in 10.0 mi East 9.2 mph - N/A   Partly Cloudy
2:56 AM 39.2 °F 33.0 °F 33.8 °F 81% 30.35 in 10.0 mi East 9.2 mph - N/A   Clear
3:16 AM 39.2 °F 33.6 °F 30.2 °F 70% 30.35 in 10.0 mi ESE 8.1 mph - N/A   Clear
3:36 AM 39.2 °F 33.0 °F 30.2 °F 70% 30.34 in 10.0 mi SE 9.2 mph - N/A   Clear
3:56 AM 39.2 °F 32.5 °F 33.8 °F 81% 30.34 in 10.0 mi East 10.4 mph - N/A   Clear
4:16 AM 39.2 °F 32.0 °F 32.0 °F 75% 30.32 in 10.0 mi East 11.5 mph - N/A   Clear
4:36 AM 39.2 °F 31.2 °F 32.0 °F 75% 30.29 in 10.0 mi East 13.8 mph - N/A   Clear
4:56 AM 39.2 °F 32.0 °F 32.0 °F 75% 30.28 in 10.0 mi East 11.5 mph 19.6 mph N/A   Clear
5:16 AM 39.2 °F 31.6 °F 33.8 °F 81% 30.28 in 10.0 mi East 12.7 mph - N/A   Partly Cloudy
5:36 AM 39.2 °F 30.5 °F 32.0 °F 75% 30.25 in 10.0 mi East 16.1 mph - N/A   Mostly Cloudy
5:56 AM 39.2 °F 31.6 °F 32.0 °F 75% 30.25 in 10.0 mi East 12.7 mph 19.6 mph N/A   Clear
6:16 AM 39.2 °F 32.5 °F 32.0 °F 75% 30.24 in 10.0 mi East 10.4 mph - N/A   Clear
6:36 AM 39.2 °F 33.6 °F 30.2 °F 70% 30.24 in 10.0 mi ESE 8.1 mph - N/A   Clear
6:56 AM 39.2 °F 34.2 °F 32.0 °F 75% 30.24 in 10.0 mi ESE 6.9 mph 16.1 mph N/A   Clear
7:16 AM 37.4 °F 33.8 °F 30.2 °F 75% 30.23 in 10.0 mi ESE 4.6 mph - N/A   Clear
7:36 AM 39.2 °F - 30.2 °F 70% 30.22 in 10.0 mi Calm Calm - N/A   Clear
7:56 AM 37.4 °F - 28.4 °F 70% 30.21 in 10.0 mi Calm Calm - N/A   Clear
8:16 AM 39.2 °F 35.0 °F 28.4 °F 65% 30.21 in 10.0 mi ESE 5.8 mph - N/A   Clear
8:36 AM 39.2 °F 35.9 °F 30.2 °F 70% 30.19 in 10.0 mi SE 4.6 mph 16.1 mph N/A   Clear
8:56 AM 41.0 °F 35.2 °F 30.2 °F 65% 30.16 in 10.0 mi East 9.2 mph 18.4 mph N/A   Clear
9:16 AM 39.2 °F 37.0 °F 28.4 °F 65% 30.18 in 10.0 mi South 3.5 mph - N/A   Clear
9:36 AM 41.0 °F 34.7 °F 28.4 °F 61% 30.17 in 10.0 mi East 10.4 mph - N/A   Clear
9:56 AM 41.0 °F 38.0 °F 28.4 °F 61% 30.17 in 10.0 mi ESE 4.6 mph - N/A   Clear
10:16 AM 39.2 °F - 28.4 °F 65% 30.17 in 10.0 mi Calm Calm - N/A   Clear
10:36 AM 42.8 °F 38.0 °F 28.4 °F 57% 30.15 in 10.0 mi East 8.1 mph - N/A   Clear
10:56 AM 42.8 °F 39.3 °F 28.4 °F 57% 30.15 in 10.0 mi ESE 5.8 mph - N/A   Mostly Cloudy
11:16 AM 42.8 °F 37.0 °F 28.4 °F 57% 30.13 in 10.0 mi East 10.4 mph - N/A   Mostly Cloudy
11:36 AM 42.8 °F 38.0 °F 28.4 °F 57% 30.11 in 10.0 mi East 8.1 mph - N/A   Mostly Cloudy
11:56 AM 44.6 °F 41.4 °F 28.4 °F 53% 30.11 in 10.0 mi ESE 5.8 mph - N/A   Mostly Cloudy
12:16 PM 44.6 °F 42.2 °F 26.6 °F 49% 30.10 in 10.0 mi East 4.6 mph - N/A   Mostly Cloudy
12:36 PM 44.6 °F - 26.6 °F 49% 30.09 in 10.0 mi Calm Calm - N/A   Mostly Cloudy
12:56 PM 42.8 °F 37.5 °F 24.8 °F 49% 30.11 in 10.0 mi SW 9.2 mph - N/A   Mostly Cloudy
1:16 PM 44.6 °F 42.2 °F 23.0 °F 43% 30.10 in 10.0 mi NE 4.6 mph - N/A   Overcast
1:36 PM 42.8 °F 41.1 °F 26.6 °F 53% 30.09 in 10.0 mi East 3.5 mph - N/A   Overcast
1:56 PM 42.8 °F 38.0 °F 28.4 °F 57% 30.07 in 10.0 mi SSE 8.1 mph - N/A   Overcast
2:16 PM 42.8 °F 38.6 °F 26.6 °F 53% 30.05 in 10.0 mi ESE 6.9 mph - N/A   Overcast
2:36 PM 41.0 °F 37.1 °F 28.4 °F 61% 30.04 in 10.0 mi SE 5.8 mph - N/A   Overcast
2:56 PM 41.0 °F 38.0 °F 26.6 °F 57% 30.05 in 10.0 mi SSE 4.6 mph - N/A   Overcast
3:16 PM 41.0 °F 37.1 °F 26.6 °F 57% 30.04 in 10.0 mi ESE 5.8 mph - N/A   Overcast
3:36 PM 41.0 °F 39.0 °F 26.6 °F 57% 30.03 in 10.0 mi West 3.5 mph - N/A   Overcast
3:56 PM 42.8 °F - 26.6 °F 53% 30.03 in 10.0 mi Calm Calm - N/A   Overcast
4:16 PM 42.8 °F 41.1 °F 24.8 °F 49% 30.04 in 10.0 mi WSW 3.5 mph - N/A   Overcast
4:36 PM 44.6 °F 41.4 °F 26.6 °F 49% 30.04 in 10.0 mi ESE 5.8 mph 18.4 mph N/A   Overcast
4:56 PM 46.4 °F 41.5 °F 21.2 °F 37% 30.03 in 10.0 mi SSE 10.4 mph 26.5 mph N/A   Overcast
5:16 PM 42.8 °F 34.3 °F 26.6 °F 53% 30.05 in 10.0 mi SE 19.6 mph 44.9 mph N/A   Overcast
5:36 PM 41.0 °F 30.5 °F 28.4 °F 61% 30.03 in 10.0 mi SE 26.5 mph 34.5 mph N/A   Overcast
5:56 PM 39.2 °F 29.6 °F 30.2 °F 70% 30.02 in 10.0 mi ESE 19.6 mph 27.6 mph 0.01 in   Overcast
6:16 PM 39.2 °F 29.3 °F 32.0 °F 75% 30.02 in 10.0 mi ESE 20.7 mph 28.8 mph 0.01 in   Overcast
6:36 PM 39.2 °F 29.3 °F 32.0 °F 75% 30.01 in 10.0 mi ESE 20.7 mph 26.5 mph 0.03 in   Overcast
6:56 PM 39.2 °F 28.7 °F 32.0 °F 75% 30.00 in 10.0 mi ESE 23.0 mph 29.9 mph 0.06 in   Overcast
7:16 PM 37.4 °F 27.2 °F 32.0 °F 81% 30.01 in 10.0 mi ESE 19.6 mph 26.5 mph 0.03 in   Overcast
7:36 PM 39.2 °F 29.6 °F 32.0 °F 75% 30.00 in 10.0 mi SE 19.6 mph 25.3 mph 0.05 in   Overcast
7:56 PM 39.2 °F 30.5 °F 32.0 °F 75% 30.00 in 10.0 mi SE 16.1 mph 23.0 mph 0.07 in   Overcast
8:16 PM 39.2 °F 29.6 °F 33.8 °F 81% 30.00 in 10.0 mi ESE 19.6 mph 23.0 mph 0.02 in   Overcast
8:36 PM 39.2 °F 29.8 °F 32.0 °F 75% 30.00 in 10.0 mi SE 18.4 mph - 0.03 in   Overcast
8:56 PM 39.2 °F 30.2 °F 33.8 °F 81% 29.99 in 10.0 mi ESE 17.3 mph 23.0 mph 0.05 in   Overcast
9:16 PM 39.2 °F 29.8 °F 32.0 °F 75% 29.99 in 10.0 mi ESE 18.4 mph 25.3 mph N/A   Overcast
9:36 PM 39.2 °F 30.5 °F 33.8 °F 81% 29.99 in 10.0 mi SE 16.1 mph - 0.04 in   Overcast
9:56 PM 39.2 °F 30.5 °F 33.8 °F 81% 29.99 in 10.0 mi SE 16.1 mph 24.2 mph 0.06 in   Overcast
10:16 PM 39.2 °F 30.5 °F 33.8 °F 81% 29.98 in 10.0 mi ESE 16.1 mph 23.0 mph 0.02 in   Overcast
10:36 PM 39.2 °F 31.2 °F 33.8 °F 81% 29.99 in 10.0 mi ESE 13.8 mph 23.0 mph 0.03 in   Overcast
10:56 PM 39.2 °F 31.2 °F 33.8 °F 81% 29.98 in 10.0 mi ESE 13.8 mph 25.3 mph 0.05 in   Overcast
11:16 PM 39.2 °F 30.2 °F 33.8 °F 81% 29.97 in 10.0 mi ESE 17.3 mph 24.2 mph N/A   Overcast
11:36 PM 39.2 °F 29.8 °F 33.8 °F 81% 29.96 in 8.0 mi SE 18.4 mph 24.2 mph 0.04 in   Overcast
11:56 PM 39.2 °F 30.2 °F 33.8 °F 81% 29.96 in 10.0 mi ESE 17.3 mph 23.0 mph 0.07 in   Overcast